Year,Month,Day,Hour,Minute,Value (Times are PST for temperature in C)
2015,05,25,00,00,11.40
2015,05,25,00,01,11.40
2015,05,25,00,02,11.40
2015,05,25,00,03,11.40
2015,05,25,00,04,11.40
2015,05,25,00,05,11.40
2015,05,25,00,06,11.30
2015,05,25,00,07,11.30
2015,05,25,00,08,11.30
2015,05,25,00,09,11.20
2015,05,25,00,10,11.20
2015,05,25,00,11,11.20
2015,05,25,00,12,11.20
2015,05,25,00,13,11.10
2015,05,25,00,14,11.10
2015,05,25,00,15,11.10
2015,05,25,00,16,11.10
2015,05,25,00,17,11.00
2015,05,25,00,18,11.00
2015,05,25,00,19,10.90
2015,05,25,00,20,10.90
2015,05,25,00,21,10.90
2015,05,25,00,22,10.80
2015,05,25,00,23,10.80
2015,05,25,00,24,10.80
2015,05,25,00,25,10.70
2015,05,25,00,26,10.70
2015,05,25,00,27,10.70
2015,05,25,00,28,10.60
2015,05,25,00,29,10.60
2015,05,25,00,30,10.60
2015,05,25,00,31,10.60
2015,05,25,00,32,10.50
2015,05,25,00,33,10.50
2015,05,25,00,34,10.50
2015,05,25,00,35,10.50
2015,05,25,00,36,10.40
2015,05,25,00,37,10.40
2015,05,25,00,38,10.40
2015,05,25,00,39,10.40
2015,05,25,00,40,10.30
2015,05,25,00,41,10.30
2015,05,25,00,42,10.30
2015,05,25,00,43,10.30
2015,05,25,00,44,10.30
2015,05,25,00,45,10.20
2015,05,25,00,46,10.20
2015,05,25,00,47,10.20
2015,05,25,00,48,10.20
2015,05,25,00,49,10.20
2015,05,25,00,50,10.20
2015,05,25,00,51,10.20
2015,05,25,00,52,10.20
2015,05,25,00,53,10.20
2015,05,25,00,54,10.20
2015,05,25,00,55,10.10
2015,05,25,00,56,10.10
2015,05,25,00,57,10.10
2015,05,25,00,58,10.10
2015,05,25,00,59,10.10
2015,05,25,01,00,10.10
2015,05,25,01,01,10.00
2015,05,25,01,02,10.00
2015,05,25,01,03,10.00
2015,05,25,01,04,10.00
2015,05,25,01,05,9.90
2015,05,25,01,06,9.90
2015,05,25,01,07,9.90
2015,05,25,01,08,9.90
2015,05,25,01,09,9.90
2015,05,25,01,10,9.90
2015,05,25,01,11,9.90
2015,05,25,01,12,9.90
2015,05,25,01,13,9.90
2015,05,25,01,14,9.80
2015,05,25,01,15,9.80
2015,05,25,01,16,9.80
2015,05,25,01,17,9.80
2015,05,25,01,18,9.80
2015,05,25,01,19,9.70
2015,05,25,01,20,9.70
2015,05,25,01,21,9.70
2015,05,25,01,22,9.70
2015,05,25,01,23,9.70
2015,05,25,01,24,9.70
2015,05,25,01,25,9.70
2015,05,25,01,26,9.70
2015,05,25,01,27,9.70
2015,05,25,01,28,9.70
2015,05,25,01,29,9.70
2015,05,25,01,30,9.60
2015,05,25,01,31,9.60
2015,05,25,01,32,9.60
2015,05,25,01,33,9.60
2015,05,25,01,34,9.60
2015,05,25,01,35,9.60
2015,05,25,01,36,9.60
2015,05,25,01,37,9.60
2015,05,25,01,38,9.60
2015,05,25,01,39,9.60
2015,05,25,01,40,9.60
2015,05,25,01,41,9.60
2015,05,25,01,42,9.60
2015,05,25,01,43,9.60
2015,05,25,01,44,9.60
2015,05,25,01,45,9.50
2015,05,25,01,46,9.50
2015,05,25,01,47,9.50
2015,05,25,01,48,9.50
2015,05,25,01,49,9.50
2015,05,25,01,50,9.40
2015,05,25,01,51,9.40
2015,05,25,01,52,9.40
2015,05,25,01,53,9.40
2015,05,25,01,54,9.40
2015,05,25,01,55,9.40
2015,05,25,01,56,9.30
2015,05,25,01,57,9.30
2015,05,25,01,58,9.30
2015,05,25,01,59,9.30
2015,05,25,02,00,9.30
2015,05,25,02,01,9.30
2015,05,25,02,02,9.30
2015,05,25,02,03,9.30
2015,05,25,02,04,9.30
2015,05,25,02,05,9.30
2015,05,25,02,06,9.30
2015,05,25,02,07,9.30
2015,05,25,02,08,9.30
2015,05,25,02,09,9.30
2015,05,25,02,10,9.30
2015,05,25,02,11,9.30
2015,05,25,02,12,9.30
2015,05,25,02,13,9.30
2015,05,25,02,14,9.40
2015,05,25,02,15,9.40
2015,05,25,02,16,9.50
2015,05,25,02,17,9.50
2015,05,25,02,18,9.50
2015,05,25,02,19,9.50
2015,05,25,02,20,9.40
2015,05,25,02,21,9.40
2015,05,25,02,22,9.40
2015,05,25,02,23,9.40
2015,05,25,02,24,9.30
2015,05,25,02,25,9.30
2015,05,25,02,26,9.30
2015,05,25,02,27,9.30
2015,05,25,02,28,9.30
2015,05,25,02,29,9.30
2015,05,25,02,30,9.20
2015,05,25,02,31,9.20
2015,05,25,02,32,9.20
2015,05,25,02,33,9.20
2015,05,25,02,34,9.20
2015,05,25,02,35,9.20
2015,05,25,02,36,9.10
2015,05,25,02,37,9.10
2015,05,25,02,38,9.10
2015,05,25,02,39,9.10
2015,05,25,02,40,9.10
2015,05,25,02,41,9.10
2015,05,25,02,42,9.10
2015,05,25,02,43,9.00
2015,05,25,02,44,9.00
2015,05,25,02,45,9.00
2015,05,25,02,46,9.00
2015,05,25,02,47,9.00
2015,05,25,02,48,9.00
2015,05,25,02,49,9.00
2015,05,25,02,50,9.00
2015,05,25,02,51,9.10
2015,05,25,02,52,9.10
2015,05,25,02,53,9.00
2015,05,25,02,54,9.00
2015,05,25,02,55,9.00
2015,05,25,02,56,8.90
2015,05,25,02,57,8.90
2015,05,25,02,58,8.90
2015,05,25,02,59,8.90
2015,05,25,03,00,8.90
2015,05,25,03,01,8.80
2015,05,25,03,02,8.80
2015,05,25,03,03,8.80
2015,05,25,04,04,8.60
2015,05,25,04,05,8.60
2015,05,25,04,06,8.60
2015,05,25,04,07,8.60
2015,05,25,04,08,8.50
2015,05,25,04,09,8.50
2015,05,25,04,10,8.50
2015,05,25,04,11,8.50
2015,05,25,04,12,8.50
2015,05,25,04,13,8.50
2015,05,25,04,14,8.50
2015,05,25,04,15,8.50
2015,05,25,04,16,8.50
2015,05,25,04,17,8.50
2015,05,25,04,18,8.50
2015,05,25,04,19,8.60
2015,05,25,04,20,8.60
2015,05,25,04,21,8.60
2015,05,25,04,22,8.60
2015,05,25,04,23,8.60
2015,05,25,04,24,8.70
2015,05,25,04,25,8.70
2015,05,25,04,26,8.70
2015,05,25,04,27,8.80
2015,05,25,04,28,8.80
2015,05,25,04,29,8.80
2015,05,25,04,30,8.80
2015,05,25,04,31,8.80
2015,05,25,04,32,8.80
2015,05,25,04,33,8.80
2015,05,25,04,34,8.80
2015,05,25,04,35,8.80
2015,05,25,04,36,8.80
2015,05,25,04,37,8.80
2015,05,25,04,38,8.80
2015,05,25,04,39,8.80
2015,05,25,04,40,8.80
2015,05,25,04,41,8.80
2015,05,25,04,42,8.80
2015,05,25,04,43,8.80
2015,05,25,04,44,8.90
2015,05,25,04,45,8.90
2015,05,25,04,46,8.90
2015,05,25,04,47,8.90
2015,05,25,04,48,8.90
2015,05,25,04,49,8.90
2015,05,25,04,50,8.90
2015,05,25,04,51,8.90
2015,05,25,04,52,9.00
2015,05,25,04,53,9.00
2015,05,25,04,54,9.00
2015,05,25,04,55,9.00
2015,05,25,04,56,9.00
2015,05,25,04,57,9.00
2015,05,25,04,58,9.00
2015,05,25,04,59,9.00
2015,05,25,05,00,9.00
2015,05,25,05,01,9.00
2015,05,25,05,02,9.10
2015,05,25,05,03,9.10
2015,05,25,05,04,9.10
2015,05,25,05,05,9.10
2015,05,25,05,06,9.10
2015,05,25,05,07,9.10
2015,05,25,05,08,9.10
2015,05,25,05,09,9.10
2015,05,25,05,10,9.10
2015,05,25,05,11,9.10
2015,05,25,05,12,9.10
2015,05,25,05,13,9.10
2015,05,25,05,14,9.10
2015,05,25,05,15,9.10
2015,05,25,05,16,9.10
2015,05,25,05,17,9.10
2015,05,25,05,18,9.20
2015,05,25,05,19,9.20
2015,05,25,05,20,9.20
2015,05,25,05,21,9.20
2015,05,25,05,22,9.20
2015,05,25,05,23,9.20
2015,05,25,05,24,9.20
2015,05,25,05,25,9.20
2015,05,25,05,26,9.20
2015,05,25,05,27,9.20
2015,05,25,05,28,9.20
2015,05,25,05,29,9.10
2015,05,25,05,30,9.20
2015,05,25,05,31,9.20
2015,05,25,05,32,9.10
2015,05,25,05,33,9.20
2015,05,25,05,34,9.10
2015,05,25,05,35,9.10
2015,05,25,05,36,9.20
2015,05,25,05,37,9.20
2015,05,25,05,38,9.20
2015,05,25,05,39,9.10
2015,05,25,05,40,9.10
2015,05,25,05,41,9.10
2015,05,25,05,42,9.10
2015,05,25,05,43,9.10
2015,05,25,05,44,9.10
2015,05,25,05,45,9.10
2015,05,25,05,46,9.10
2015,05,25,05,47,9.10
2015,05,25,05,48,9.10
2015,05,25,05,49,9.10
2015,05,25,05,50,9.10
2015,05,25,05,51,9.10
2015,05,25,05,52,9.10
2015,05,25,05,53,9.10
2015,05,25,05,54,9.10
2015,05,25,05,55,9.10
2015,05,25,05,56,9.10
2015,05,25,05,57,9.10
2015,05,25,05,58,9.10
2015,05,25,05,59,9.10
2015,05,25,06,00,9.10
2015,05,25,06,01,9.10
2015,05,25,06,02,9.20
2015,05,25,06,03,9.20
2015,05,25,06,04,9.20
2015,05,25,06,05,9.20
2015,05,25,06,06,9.20
2015,05,25,06,07,9.20
2015,05,25,06,08,9.20
2015,05,25,06,09,9.20
2015,05,25,06,10,9.20
2015,05,25,06,11,9.20
2015,05,25,06,12,9.20
2015,05,25,06,13,9.20
2015,05,25,06,14,9.20
2015,05,25,06,15,9.20
2015,05,25,06,16,9.20
2015,05,25,06,17,9.20
2015,05,25,06,18,9.20
2015,05,25,06,19,9.20
2015,05,25,06,20,9.20
2015,05,25,06,21,9.20
2015,05,25,06,22,9.20
2015,05,25,06,23,9.20
2015,05,25,06,24,9.30
2015,05,25,06,25,9.30
2015,05,25,06,26,9.30
2015,05,25,06,27,9.30
2015,05,25,06,28,9.30
2015,05,25,06,29,9.30
2015,05,25,06,30,9.30
2015,05,25,06,31,9.40
2015,05,25,06,32,9.40
2015,05,25,06,33,9.40
2015,05,25,06,34,9.50
2015,05,25,06,35,9.60
2015,05,25,06,36,9.60
2015,05,25,06,37,9.60
2015,05,25,06,38,9.70
2015,05,25,06,39,9.70
2015,05,25,06,40,9.80
2015,05,25,06,41,9.80
2015,05,25,06,42,9.80
2015,05,25,06,43,9.80
2015,05,25,06,44,9.90
2015,05,25,06,45,9.90
2015,05,25,06,46,9.90
2015,05,25,06,47,10.00
2015,05,25,06,48,10.00
2015,05,25,06,49,10.10
2015,05,25,06,50,10.10
2015,05,25,06,51,10.10
2015,05,25,06,52,10.10
2015,05,25,06,53,10.10
2015,05,25,06,54,10.20
2015,05,25,06,55,10.20
2015,05,25,06,56,10.20
2015,05,25,06,57,10.30
2015,05,25,06,58,10.30
2015,05,25,06,59,10.30
2015,05,25,07,00,10.30
2015,05,25,07,01,10.30
2015,05,25,07,02,10.30
2015,05,25,07,03,10.40
2015,05,25,07,04,10.40
2015,05,25,07,05,10.40
2015,05,25,07,06,10.40
2015,05,25,07,07,10.40
2015,05,25,07,08,10.40
2015,05,25,07,09,10.40
2015,05,25,07,10,10.40
2015,05,25,07,11,10.40
2015,05,25,07,12,10.50
2015,05,25,07,13,10.50
2015,05,25,07,14,10.50
2015,05,25,07,15,10.50
2015,05,25,07,16,10.50
2015,05,25,07,17,10.60
2015,05,25,07,18,10.60
2015,05,25,07,19,10.60
2015,05,25,07,20,10.60
2015,05,25,07,21,10.60
2015,05,25,07,22,10.60
2015,05,25,07,23,10.60
2015,05,25,07,24,10.70
2015,05,25,07,25,10.70
2015,05,25,07,26,10.70
2015,05,25,07,27,10.70
2015,05,25,07,28,10.70
2015,05,25,07,29,10.70
2015,05,25,07,30,10.70
2015,05,25,07,31,10.70
2015,05,25,07,32,10.70
2015,05,25,07,33,10.80
2015,05,25,07,34,10.80
2015,05,25,07,35,10.80
2015,05,25,07,36,10.80
2015,05,25,07,37,10.80
2015,05,25,07,38,10.80
2015,05,25,07,39,10.80
2015,05,25,07,40,10.80
2015,05,25,07,41,10.90
2015,05,25,07,42,10.90
2015,05,25,07,43,10.90
2015,05,25,07,44,10.90
2015,05,25,07,45,10.90
2015,05,25,07,46,10.90
2015,05,25,07,47,10.90
2015,05,25,07,48,11.00
2015,05,25,07,49,11.00
2015,05,25,07,50,11.00
2015,05,25,07,51,11.10
2015,05,25,07,52,11.10
2015,05,25,07,53,11.10
2015,05,25,07,54,11.10
2015,05,25,07,55,11.10
2015,05,25,07,56,11.10
2015,05,25,07,57,11.10
2015,05,25,07,58,11.10
2015,05,25,07,59,11.20
2015,05,25,08,00,11.20
2015,05,25,08,01,11.20
2015,05,25,08,02,11.20
2015,05,25,08,03,11.30
2015,05,25,08,04,11.30
2015,05,25,08,05,11.30
2015,05,25,08,06,11.30
2015,05,25,08,07,11.30
2015,05,25,08,08,11.30
2015,05,25,08,09,11.30
2015,05,25,08,10,11.30
2015,05,25,08,11,11.30
2015,05,25,08,12,11.40
2015,05,25,08,13,11.40
2015,05,25,08,14,11.40
2015,05,25,08,15,11.50
2015,05,25,08,16,11.50
2015,05,25,08,17,11.50
2015,05,25,08,18,11.50
2015,05,25,08,19,11.60
2015,05,25,08,20,11.60
2015,05,25,08,21,11.60
2015,05,25,08,22,11.60
2015,05,25,08,23,11.60
2015,05,25,08,24,11.60
2015,05,25,08,25,11.60
2015,05,25,08,26,11.60
2015,05,25,08,27,11.60
2015,05,25,08,28,11.60
2015,05,25,08,29,11.60
2015,05,25,08,30,11.60
2015,05,25,08,31,11.60
2015,05,25,08,32,11.60
2015,05,25,08,33,11.60
2015,05,25,08,34,11.60
2015,05,25,08,35,11.60
2015,05,25,08,36,11.60
2015,05,25,08,37,11.60
2015,05,25,08,38,11.60
2015,05,25,08,39,11.60
2015,05,25,08,40,11.60
2015,05,25,08,41,11.60
2015,05,25,08,42,11.70
2015,05,25,08,43,11.70
2015,05,25,08,44,11.70
2015,05,25,08,45,11.70
2015,05,25,08,46,11.70
2015,05,25,08,47,11.70
2015,05,25,08,48,11.70
2015,05,25,08,49,11.70
2015,05,25,08,50,11.70
2015,05,25,08,51,11.80
2015,05,25,08,52,11.80
2015,05,25,08,53,11.80
2015,05,25,08,54,11.80
2015,05,25,08,55,11.80
2015,05,25,08,56,11.80
2015,05,25,08,57,11.80
2015,05,25,08,58,11.70
2015,05,25,08,59,11.70
2015,05,25,09,00,11.70
2015,05,25,09,01,11.70
2015,05,25,09,02,11.70
2015,05,25,09,03,11.70
2015,05,25,09,04,11.70
2015,05,25,09,05,11.70
2015,05,25,09,06,11.70
2015,05,25,09,07,11.70
2015,05,25,09,08,11.70
2015,05,25,09,09,11.70
2015,05,25,09,10,11.70
2015,05,25,09,11,11.80
2015,05,25,09,12,11.80
2015,05,25,09,13,11.80
2015,05,25,09,14,11.80
2015,05,25,09,15,11.80
2015,05,25,09,16,11.80
2015,05,25,09,17,11.90
2015,05,25,09,18,11.90
2015,05,25,09,19,11.80
2015,05,25,09,20,11.80
2015,05,25,09,21,11.90
2015,05,25,09,22,11.90
2015,05,25,09,23,11.80
2015,05,25,09,24,11.80
2015,05,25,09,25,11.80
2015,05,25,09,26,11.80
2015,05,25,09,27,11.90
2015,05,25,09,28,11.90
2015,05,25,09,29,11.90
2015,05,25,09,30,11.90
2015,05,25,09,31,11.90
2015,05,25,09,32,11.90
2015,05,25,09,33,11.90
2015,05,25,09,34,11.90
2015,05,25,09,35,11.90
2015,05,25,09,36,11.90
2015,05,25,09,37,12.00
2015,05,25,09,38,12.00
2015,05,25,09,39,11.90
2015,05,25,09,40,12.00
2015,05,25,09,41,12.00
2015,05,25,09,42,12.00
2015,05,25,09,43,12.10
2015,05,25,09,44,12.10
2015,05,25,09,45,12.10
2015,05,25,09,46,12.20
2015,05,25,09,47,12.20
2015,05,25,09,48,12.20
2015,05,25,09,49,12.20
2015,05,25,09,50,12.20
2015,05,25,09,51,12.20
2015,05,25,09,52,12.20
2015,05,25,09,53,12.20
2015,05,25,09,54,12.20
2015,05,25,09,55,12.20
2015,05,25,09,56,12.30
2015,05,25,09,57,12.30
2015,05,25,09,58,12.30
2015,05,25,09,59,12.30
2015,05,25,10,00,12.30
2015,05,25,10,01,12.40
2015,05,25,10,02,12.40
2015,05,25,10,03,12.40
2015,05,25,10,04,12.40
2015,05,25,10,05,12.40
2015,05,25,10,06,12.40
2015,05,25,10,07,12.40
2015,05,25,10,08,12.40
2015,05,25,10,09,12.50
2015,05,25,10,10,12.50
2015,05,25,10,11,12.50
2015,05,25,10,12,12.50
2015,05,25,10,13,12.60
2015,05,25,10,14,12.60
2015,05,25,10,15,12.60
2015,05,25,10,16,12.70
2015,05,25,10,17,12.70
2015,05,25,10,18,12.70
2015,05,25,10,19,12.70
2015,05,25,10,20,12.70
2015,05,25,10,21,12.70
2015,05,25,10,22,12.70
2015,05,25,10,23,12.70
2015,05,25,10,24,12.70
2015,05,25,10,25,12.70
2015,05,25,10,26,12.60
2015,05,25,10,27,12.60
2015,05,25,10,28,12.60
2015,05,25,10,29,12.60
2015,05,25,10,30,12.60
2015,05,25,10,31,12.70
2015,05,25,10,32,12.70
2015,05,25,10,33,12.70
2015,05,25,10,34,12.70
2015,05,25,10,35,12.70
2015,05,25,10,36,12.70
2015,05,25,10,37,12.70
2015,05,25,10,38,12.70
2015,05,25,10,39,12.70
2015,05,25,10,40,12.70
2015,05,25,10,41,12.70
2015,05,25,10,42,12.70
2015,05,25,10,43,12.70
2015,05,25,10,44,12.70
2015,05,25,10,45,12.70
2015,05,25,10,46,12.70
2015,05,25,10,47,12.80
2015,05,25,10,48,12.80
2015,05,25,10,49,12.80
2015,05,25,10,50,12.80
2015,05,25,10,51,12.80
2015,05,25,10,52,12.80
2015,05,25,10,53,12.80
2015,05,25,10,54,12.90
2015,05,25,10,55,12.90
2015,05,25,10,56,13.00
2015,05,25,10,57,13.10
2015,05,25,10,58,13.10
2015,05,25,10,59,13.20
2015,05,25,11,00,13.30
2015,05,25,11,01,13.30
2015,05,25,11,02,13.40
2015,05,25,11,03,13.40
2015,05,25,11,04,13.50
2015,05,25,11,05,13.60
2015,05,25,11,06,13.70
2015,05,25,11,07,13.70
2015,05,25,11,08,13.70
2015,05,25,11,09,13.70
2015,05,25,11,10,13.60
2015,05,25,11,11,13.60
2015,05,25,11,12,13.60
2015,05,25,11,13,13.50
2015,05,25,11,14,13.50
2015,05,25,11,15,13.50
2015,05,25,11,16,13.40
2015,05,25,11,17,13.40
2015,05,25,11,18,13.40
2015,05,25,11,19,13.30
2015,05,25,11,20,13.30
2015,05,25,11,21,13.30
2015,05,25,11,22,13.30
2015,05,25,11,23,13.20
2015,05,25,11,24,13.20
2015,05,25,11,25,13.20
2015,05,25,11,26,13.10
2015,05,25,11,27,13.10
2015,05,25,11,28,13.00
2015,05,25,11,29,12.90
2015,05,25,11,30,12.90
2015,05,25,11,31,12.90
2015,05,25,11,32,12.90
2015,05,25,11,33,12.90
2015,05,25,11,34,12.90
2015,05,25,11,35,13.00
2015,05,25,11,36,13.00
2015,05,25,11,37,13.10
2015,05,25,11,38,13.20
2015,05,25,11,39,13.20
2015,05,25,11,40,13.20
2015,05,25,11,41,13.30
2015,05,25,11,42,13.30
2015,05,25,11,43,13.40
2015,05,25,11,44,13.40
2015,05,25,11,45,13.40
2015,05,25,11,46,13.40
2015,05,25,11,47,13.50
2015,05,25,11,48,13.40
2015,05,25,11,49,13.40
2015,05,25,11,50,13.50
2015,05,25,11,51,13.50
2015,05,25,11,52,13.50
2015,05,25,11,53,13.50
2015,05,25,11,54,13.60
2015,05,25,11,55,13.60
2015,05,25,11,56,13.60
2015,05,25,11,57,13.60
2015,05,25,11,58,13.60
2015,05,25,11,59,13.60
2015,05,25,12,00,13.60
2015,05,25,12,01,13.50
2015,05,25,12,02,13.50
2015,05,25,12,03,13.40
2015,05,25,12,04,13.40
2015,05,25,12,05,13.50
2015,05,25,12,06,13.50
2015,05,25,12,07,13.50
2015,05,25,12,08,13.60
2015,05,25,12,09,13.60
2015,05,25,12,10,13.60
2015,05,25,12,11,13.60
2015,05,25,12,12,13.60
2015,05,25,12,13,13.60
2015,05,25,12,14,13.60
2015,05,25,12,15,13.60
2015,05,25,12,16,13.60
2015,05,25,12,17,13.60
2015,05,25,12,18,13.60
2015,05,25,12,19,13.60
2015,05,25,12,20,13.60
2015,05,25,12,21,13.70
2015,05,25,12,22,13.70
2015,05,25,12,23,13.80
2015,05,25,12,24,13.80
2015,05,25,12,25,13.90
2015,05,25,12,26,14.00
2015,05,25,12,27,14.00
2015,05,25,12,28,14.10
2015,05,25,12,29,14.00
2015,05,25,12,30,13.90
2015,05,25,12,31,13.80
2015,05,25,12,32,13.80
2015,05,25,12,33,13.80
2015,05,25,12,34,13.80
2015,05,25,12,35,13.70
2015,05,25,12,36,13.70
2015,05,25,12,37,13.70
2015,05,25,12,38,13.70
2015,05,25,12,39,13.70
2015,05,25,12,40,13.70
2015,05,25,12,41,13.70
2015,05,25,12,42,13.70
2015,05,25,12,43,13.70
2015,05,25,12,44,13.80
2015,05,25,12,45,13.80
2015,05,25,12,46,13.80
2015,05,25,12,47,13.90
2015,05,25,12,48,13.90
2015,05,25,12,49,13.90
2015,05,25,12,50,13.90
2015,05,25,12,51,13.90
2015,05,25,12,52,13.90
2015,05,25,12,53,14.00
2015,05,25,12,54,14.00
2015,05,25,12,55,14.10
2015,05,25,12,56,14.10
2015,05,25,12,57,14.10
2015,05,25,12,58,14.10
2015,05,25,12,59,14.10
2015,05,25,13,00,14.10
2015,05,25,13,01,14.10
2015,05,25,13,02,14.10
2015,05,25,13,03,14.00
2015,05,25,13,04,14.00
2015,05,25,13,05,14.00
2015,05,25,13,06,13.90
2015,05,25,13,07,13.90
2015,05,25,13,08,13.90
2015,05,25,13,09,13.90
2015,05,25,13,10,14.00
2015,05,25,13,11,14.10
2015,05,25,13,12,14.10
2015,05,25,13,13,14.20
2015,05,25,13,14,14.20
2015,05,25,13,15,14.30
2015,05,25,13,16,14.30
2015,05,25,13,17,14.20
2015,05,25,13,18,14.10
2015,05,25,13,19,14.00
2015,05,25,13,20,14.00
2015,05,25,13,21,13.90
2015,05,25,13,22,13.90
2015,05,25,13,23,13.80
2015,05,25,13,24,13.80
2015,05,25,13,25,13.80
2015,05,25,13,26,13.80
2015,05,25,13,27,13.80
2015,05,25,13,28,13.70
2015,05,25,13,29,13.70
2015,05,25,13,30,13.70
2015,05,25,13,31,13.80
2015,05,25,13,32,13.80
2015,05,25,13,33,13.80
2015,05,25,13,34,13.70
2015,05,25,13,35,13.70
2015,05,25,13,36,13.70
2015,05,25,13,37,13.80
2015,05,25,13,38,13.80
2015,05,25,13,39,13.80
2015,05,25,13,40,13.80
2015,05,25,13,41,13.80
2015,05,25,13,42,13.80
2015,05,25,13,43,13.90
2015,05,25,13,44,13.90
2015,05,25,13,45,14.00
2015,05,25,13,46,14.10
2015,05,25,13,47,14.10
2015,05,25,13,48,14.10
2015,05,25,13,49,14.20
2015,05,25,13,50,14.20
2015,05,25,13,51,14.30
2015,05,25,13,52,14.30
2015,05,25,13,53,14.30
2015,05,25,13,54,14.30
2015,05,25,13,55,14.20
2015,05,25,13,56,14.10
2015,05,25,13,57,14.00
2015,05,25,13,58,13.90
2015,05,25,13,59,13.90
2015,05,25,14,00,13.80
2015,05,25,14,01,13.80
2015,05,25,14,02,13.80
2015,05,25,14,03,13.80
2015,05,25,14,04,13.80
2015,05,25,14,05,13.80
2015,05,25,14,06,13.80
2015,05,25,14,07,13.80
2015,05,25,14,08,13.70
2015,05,25,14,09,13.70
2015,05,25,14,10,13.70
2015,05,25,14,11,13.70
2015,05,25,14,12,13.70
2015,05,25,14,13,13.70
2015,05,25,14,14,13.70
2015,05,25,14,15,13.70
2015,05,25,14,16,13.70
2015,05,25,14,17,13.70
2015,05,25,14,18,13.70
2015,05,25,14,19,13.70
2015,05,25,14,20,13.70
2015,05,25,14,21,13.60
2015,05,25,14,22,13.60
2015,05,25,14,23,13.50
2015,05,25,14,24,13.50
2015,05,25,14,25,13.40
2015,05,25,14,26,13.40
2015,05,25,14,27,13.40
2015,05,25,14,28,13.40
2015,05,25,14,29,13.30
2015,05,25,14,30,13.30
2015,05,25,14,31,13.30
2015,05,25,14,32,13.40
2015,05,25,14,33,13.40
2015,05,25,14,34,13.40
2015,05,25,14,35,13.50
2015,05,25,14,36,13.50
2015,05,25,14,37,13.60
2015,05,25,14,38,13.70
2015,05,25,14,39,13.80
2015,05,25,14,40,13.90
2015,05,25,14,41,14.00
2015,05,25,14,42,14.10
2015,05,25,14,43,14.10
2015,05,25,14,44,14.10
2015,05,25,14,45,14.20
2015,05,25,14,46,14.10
2015,05,25,14,47,14.10
2015,05,25,14,48,14.10
2015,05,25,14,49,14.10
2015,05,25,14,50,14.20
2015,05,25,14,51,14.20
2015,05,25,14,52,14.20
2015,05,25,14,53,14.30
2015,05,25,14,54,14.30
2015,05,25,14,55,14.30
2015,05,25,14,56,14.30
2015,05,25,14,57,14.30
2015,05,25,14,58,14.30
2015,05,25,14,59,14.40
2015,05,25,15,00,14.40
2015,05,25,15,01,14.50
2015,05,25,15,02,14.50
2015,05,25,15,03,14.60
2015,05,25,15,04,14.60
2015,05,25,15,05,14.60
2015,05,25,15,06,14.60
2015,05,25,15,07,14.60
2015,05,25,15,08,14.60
2015,05,25,15,09,14.60
2015,05,25,15,10,14.60
2015,05,25,15,11,14.60
2015,05,25,15,12,14.70
2015,05,25,15,13,14.70
2015,05,25,15,14,14.80
2015,05,25,15,15,14.80
2015,05,25,15,16,14.80
2015,05,25,15,17,14.70
2015,05,25,15,18,14.70
2015,05,25,15,19,14.70
2015,05,25,15,20,14.70
2015,05,25,15,21,14.80
2015,05,25,15,22,14.80
2015,05,25,15,23,14.80
2015,05,25,15,24,14.80
2015,05,25,15,25,14.80
2015,05,25,15,26,14.80
2015,05,25,15,27,14.80
2015,05,25,15,28,14.70
2015,05,25,15,29,14.70
2015,05,25,15,30,14.70
2015,05,25,15,31,14.70
2015,05,25,15,32,14.70
2015,05,25,15,33,14.60
2015,05,25,15,34,14.60
2015,05,25,15,35,14.60
2015,05,25,15,36,14.60
2015,05,25,15,37,14.60
2015,05,25,15,38,14.60
2015,05,25,15,39,14.60
2015,05,25,15,40,14.60
2015,05,25,15,41,14.50
2015,05,25,15,42,14.50
2015,05,25,15,43,14.40
2015,05,25,15,44,14.40
2015,05,25,15,45,14.50
2015,05,25,15,46,14.50
2015,05,25,15,47,14.50
2015,05,25,15,48,14.50
2015,05,25,15,49,14.50
2015,05,25,15,50,14.40
2015,05,25,15,51,14.40
2015,05,25,15,52,14.30
2015,05,25,15,53,14.30
2015,05,25,15,54,14.30
2015,05,25,15,55,14.30
2015,05,25,15,56,14.30
2015,05,25,15,57,14.40
2015,05,25,15,58,14.40
2015,05,25,15,59,14.50
2015,05,25,16,00,14.50
2015,05,25,16,01,14.50
2015,05,25,16,02,14.50
2015,05,25,16,03,14.50
2015,05,25,16,04,14.50
2015,05,25,16,05,14.40
2015,05,25,16,06,14.40
2015,05,25,16,07,14.40
2015,05,25,16,08,14.40
2015,05,25,16,09,14.50
2015,05,25,16,10,14.50
2015,05,25,16,11,14.50
2015,05,25,16,12,14.50
2015,05,25,16,13,14.60
2015,05,25,16,14,14.60
2015,05,25,16,15,14.70
2015,05,25,16,16,14.70
2015,05,25,16,17,14.80
2015,05,25,16,18,14.90
2015,05,25,16,19,15.00
2015,05,25,16,20,15.00
2015,05,25,16,21,15.00
2015,05,25,16,22,15.00
2015,05,25,16,23,15.00
2015,05,25,16,24,15.00
2015,05,25,16,25,14.90
2015,05,25,16,26,14.90
2015,05,25,16,27,15.00
2015,05,25,16,28,14.90
2015,05,25,16,29,14.90
2015,05,25,16,30,14.80
2015,05,25,16,31,14.80
2015,05,25,16,32,14.80
2015,05,25,16,33,14.80
2015,05,25,16,34,14.70
2015,05,25,16,35,14.70
2015,05,25,16,36,14.70
2015,05,25,16,37,14.70
2015,05,25,16,38,14.70
2015,05,25,16,39,14.70
2015,05,25,16,40,14.70
2015,05,25,16,41,14.60
2015,05,25,16,42,14.60
2015,05,25,16,43,14.60
2015,05,25,16,44,14.60
2015,05,25,16,45,14.70
2015,05,25,16,46,14.70
2015,05,25,16,47,14.80
2015,05,25,16,48,14.80
2015,05,25,16,49,14.70
2015,05,25,16,50,14.70
2015,05,25,16,51,14.60
2015,05,25,16,52,14.60
2015,05,25,16,53,14.60
2015,05,25,16,54,14.50
2015,05,25,16,55,14.50
2015,05,25,16,56,14.60
2015,05,25,16,57,14.60
2015,05,25,16,58,14.60
2015,05,25,16,59,14.70
2015,05,25,17,00,14.70
2015,05,25,17,01,14.80
2015,05,25,17,02,14.90
2015,05,25,17,03,15.00
2015,05,25,17,04,15.00
2015,05,25,17,05,15.00
2015,05,25,17,06,15.00
2015,05,25,17,07,15.00
2015,05,25,17,08,15.00
2015,05,25,17,09,15.00
2015,05,25,17,10,15.00
2015,05,25,17,11,15.00
2015,05,25,17,12,15.00
2015,05,25,17,13,14.90
2015,05,25,17,14,14.80
2015,05,25,17,15,14.70
2015,05,25,17,16,14.60
2015,05,25,17,17,14.50
2015,05,25,17,18,14.40
2015,05,25,17,19,14.40
2015,05,25,17,20,14.40
2015,05,25,17,21,14.30
2015,05,25,17,22,14.30
2015,05,25,17,23,14.30
2015,05,25,17,24,14.30
2015,05,25,17,25,14.30
2015,05,25,17,26,14.30
2015,05,25,17,27,14.30
2015,05,25,17,28,14.30
2015,05,25,17,29,14.30
2015,05,25,17,30,14.30
2015,05,25,17,31,14.30
2015,05,25,17,32,14.30
2015,05,25,17,33,14.30
2015,05,25,17,34,14.30
2015,05,25,17,35,14.40
2015,05,25,17,36,14.40
2015,05,25,17,37,14.40
2015,05,25,17,38,14.40
2015,05,25,17,39,14.40
2015,05,25,17,40,14.40
2015,05,25,17,41,14.40
2015,05,25,17,42,14.40
2015,05,25,17,43,14.50
2015,05,25,17,44,14.50
2015,05,25,17,45,14.50
2015,05,25,17,46,14.50
2015,05,25,17,47,14.40
2015,05,25,17,48,14.40
2015,05,25,17,49,14.40
2015,05,25,17,50,14.40
2015,05,25,17,51,14.40
2015,05,25,17,52,14.30
2015,05,25,17,53,14.20
2015,05,25,17,54,14.20
2015,05,25,17,55,14.20
2015,05,25,17,56,14.20
2015,05,25,17,57,14.30
2015,05,25,17,58,14.40
2015,05,25,17,59,14.40
2015,05,25,18,00,14.50
2015,05,25,18,01,14.60
2015,05,25,18,02,14.60
2015,05,25,18,03,14.70
2015,05,25,18,04,14.70
2015,05,25,18,05,14.70
2015,05,25,18,06,14.70
2015,05,25,18,07,14.70
2015,05,25,18,08,14.70
2015,05,25,18,09,14.70
2015,05,25,18,10,14.70
2015,05,25,18,11,14.70
2015,05,25,18,12,14.70
2015,05,25,18,13,14.60
2015,05,25,18,14,14.60
2015,05,25,18,15,14.60
2015,05,25,18,16,14.70
2015,05,25,18,17,14.70
2015,05,25,18,18,14.80
2015,05,25,18,19,14.90
2015,05,25,18,20,15.00
2015,05,25,18,21,15.00
2015,05,25,18,22,15.00
2015,05,25,18,23,15.00
2015,05,25,18,24,15.10
2015,05,25,18,25,15.20
2015,05,25,18,26,15.20
2015,05,25,18,27,15.20
2015,05,25,18,28,15.30
2015,05,25,18,29,15.30
2015,05,25,18,30,15.40
2015,05,25,18,31,15.40